| time (UTC) | temp F | wind direction | speed MPH | gust MPH | rain 1hr in | rain 24hr in | rain mn in | humidity % | barometer mb |
| 20260506165011 | 39 | 273 | 4.0 | 10.0 | 0.00 | 0.00 | 0.00 | 59 | 1014.6 |
| 20260506164531 | 39 | 225 | 3.0 | 10.0 | 0.00 | 0.00 | 0.00 | 58 | 1014.6 |
| 20260506164010 | 39 | 307 | 2.0 | 8.0 | 0.00 | 0.00 | 0.00 | 60 | 1014.7 |
| 20260506163511 | 39 | 229 | 3.0 | 9.0 | 0.00 | 0.00 | 0.00 | 59 | 1014.7 |
| 20260506163032 | 39 | 280 | 3.0 | 9.0 | 0.00 | 0.00 | 0.00 | 59 | 1014.7 |
| 20260506162513 | 39 | 284 | 1.0 | 8.0 | 0.00 | 0.00 | 0.00 | 61 | 1014.8 |
| 20260506162011 | 38 | 277 | 3.0 | 8.0 | 0.00 | 0.00 | 0.00 | 58 | 1014.7 |
| 20260506161535 | 38 | 261 | 3.0 | 8.0 | 0.00 | 0.00 | 0.00 | 59 | 1014.7 |
| 20260506161011 | 38 | 248 | 2.0 | 10.0 | 0.00 | 0.00 | 0.00 | 57 | 1014.7 |
| 20260506160517 | 38 | 263 | 3.0 | 10.0 | 0.00 | 0.00 | 0.00 | 57 | 1014.6 |
| 20260506160031 | 38 | 257 | 2.0 | 10.0 | 0.00 | 0.00 | 0.00 | 59 | 1014.6 |
| 20260506155513 | 38 | 281 | 3.0 | 9.0 | 0.00 | 0.00 | 0.00 | 60 | 1014.6 |
| 20260506155015 | 38 | 232 | 2.0 | 9.0 | 0.00 | 0.00 | 0.00 | 59 | 1014.6 |
| 20260506154533 | 38 | 267 | 2.0 | 11.0 | 0.00 | 0.00 | 0.00 | 61 | 1014.6 |
| 20260506154011 | 38 | 227 | 4.0 | 11.0 | 0.00 | 0.00 | 0.00 | 59 | 1014.6 |
| 20260506153512 | 38 | 282 | 3.0 | 11.0 | 0.00 | 0.00 | 0.00 | 61 | 1014.6 |
| 20260506153031 | 38 | 286 | 4.0 | 11.0 | 0.00 | 0.00 | 0.00 | 59 | 1014.6 |
| 20260506152509 | 38 | 270 | 3.0 | 8.0 | 0.00 | 0.00 | 0.00 | 58 | 1014.5 |
| 20260506152017 | 38 | 286 | 3.0 | 8.0 | 0.00 | 0.00 | 0.00 | 58 | 1014.5 |
| 20260506151530 | 38 | 275 | 3.0 | 8.0 | 0.00 | 0.00 | 0.00 | 58 | 1014.4 |
| 20260506151010 | 38 | 275 | 3.0 | 8.0 | 0.00 | 0.00 | 0.00 | 58 | 1014.4 |
| 20260506150511 | 38 | 271 | 2.0 | 7.0 | 0.00 | 0.00 | 0.00 | 60 | 1014.4 |
| 20260506150030 | 38 | 262 | 2.0 | 10.0 | 0.00 | 0.00 | 0.00 | 59 | 1014.3 |
| 20260506145510 | 37 | 298 | 3.0 | 10.0 | 0.00 | 0.00 | 0.00 | 59 | 1014.5 |
| 20260506145012 | 38 | 273 | 3.0 | 9.0 | 0.00 | 0.00 | 0.00 | 58 | 1014.4 |
| 20260506144540 | 39 | 0 | 1.0 | 9.0 | 0.00 | 0.00 | 0.00 | 59 | 1014.4 |
| 20260506144015 | 39 | 229 | 2.0 | 9.0 | 0.00 | 0.00 | 0.00 | 61 | 1014.4 |
| 20260506143516 | 39 | 307 | 3.0 | 9.0 | 0.00 | 0.00 | 0.00 | 61 | 1014.4 |
| 20260506143032 | 38 | 250 | 4.0 | 10.0 | 0.00 | 0.00 | 0.00 | 61 | 1014.5 |
| 20260506142511 | 38 | 304 | 2.0 | 10.0 | 0.00 | 0.00 | 0.00 | 62 | 1014.6 |
| 20260506142011 | 38 | 242 | 2.0 | 10.0 | 0.00 | 0.00 | 0.00 | 63 | 1014.6 |
| 20260506141536 | 37 | 355 | 1.0 | 8.0 | 0.00 | 0.00 | 0.00 | 66 | 1014.6 |
| 20260506141011 | 37 | 317 | 2.0 | 8.0 | 0.00 | 0.00 | 0.00 | 64 | 1014.6 |
| 20260506140512 | 36 | 228 | 1.0 | 8.0 | 0.00 | 0.00 | 0.00 | 66 | 1014.6 |
| 20260506140032 | 36 | 311 | 2.0 | 8.0 | 0.00 | 0.00 | 0.00 | 64 | 1014.6 |
| 20260506135510 | 36 | 0 | 2.0 | 8.0 | 0.00 | 0.00 | 0.00 | 66 | 1014.6 |
| 20260506135017 | 36 | 267 | 2.0 | 7.0 | 0.00 | 0.00 | 0.00 | 68 | 1014.5 |
| 20260506134530 | 36 | 290 | 2.0 | 7.0 | 0.00 | 0.00 | 0.00 | 68 | 1014.5 |
| 20260506134013 | 35 | 255 | 3.0 | 8.0 | 0.00 | 0.00 | 0.00 | 67 | 1014.5 |
| 20260506133512 | 35 | 240 | 3.0 | 8.0 | 0.00 | 0.00 | 0.00 | 68 | 1014.5 |
| 20260506133030 | 34 | 278 | 2.0 | 9.0 | 0.00 | 0.00 | 0.00 | 69 | 1014.5 |
| 20260506132511 | 34 | 263 | 4.0 | 9.0 | 0.00 | 0.00 | 0.00 | 68 | 1014.5 |
| 20260506132015 | 34 | 256 | 4.0 | 8.0 | 0.00 | 0.00 | 0.00 | 69 | 1014.4 |
| 20260506131532 | 34 | 267 | 3.0 | 8.0 | 0.00 | 0.00 | 0.00 | 69 | 1014.3 |
| 20260506131011 | 34 | 263 | 2.0 | 8.0 | 0.00 | 0.00 | 0.00 | 70 | 1014.3 |
| 20260506130514 | 33 | 261 | 3.0 | 8.0 | 0.00 | 0.00 | 0.00 | 69 | 1014.4 |
| 20260506130031 | 33 | 255 | 2.0 | 7.0 | 0.00 | 0.00 | 0.00 | 71 | 1014.4 |
| 20260506125512 | 33 | 256 | 2.0 | 8.0 | 0.00 | 0.00 | 0.00 | 70 | 1014.5 |
| 20260506125013 | 33 | 261 | 3.0 | 8.0 | 0.00 | 0.00 | 0.00 | 70 | 1014.3 |
| 20260506124531 | 33 | 281 | 3.0 | 9.0 | 0.00 | 0.00 | 0.00 | 70 | 1014.4 |
| 20260506124010 | 33 | 256 | 3.0 | 9.0 | 0.00 | 0.00 | 0.00 | 70 | 1014.2 |
| 20260506123515 | 32 | 284 | 1.0 | 7.0 | 0.00 | 0.00 | 0.00 | 72 | 1014.3 |
| 20260506123030 | 32 | 265 | 3.0 | 6.0 | 0.00 | 0.00 | 0.00 | 71 | 1014.2 |
| 20260506122510 | 32 | 261 | 2.0 | 7.0 | 0.00 | 0.00 | 0.00 | 72 | 1014.2 |
| 20260506122018 | 32 | 266 | 3.0 | 7.0 | 0.00 | 0.00 | 0.00 | 71 | 1014.1 |
| 20260506121530 | 31 | 260 | 1.0 | 7.0 | 0.00 | 0.00 | 0.00 | 72 | 1014.0 |
| 20260506121011 | 31 | 260 | 3.0 | 7.0 | 0.00 | 0.00 | 0.00 | 71 | 1013.8 |
| 20260506120513 | 31 | 263 | 1.0 | 4.0 | 0.00 | 0.00 | 0.00 | 72 | 1013.8 |
| 20260506120031 | 31 | 263 | 2.0 | 4.0 | 0.00 | 0.00 | 0.00 | 72 | 1013.8 |
| 20260506115514 | 31 | 270 | 1.0 | 4.0 | 0.00 | 0.00 | 0.00 | 72 | 1013.7 |
| 20260506115015 | 31 | 259 | 1.0 | 3.0 | 0.00 | 0.00 | 0.00 | 72 | 1013.6 |
| 20260506114530 | 31 | 259 | 1.0 | 4.0 | 0.00 | 0.00 | 0.00 | 72 | 1013.5 |
| 20260506114012 | 31 | 0 | 0.0 | 4.0 | 0.00 | 0.00 | 0.00 | 71 | 1013.5 |
| 20260506113513 | 31 | 259 | 1.0 | 4.0 | 0.00 | 0.00 | 0.00 | 71 | 1013.4 |
| 20260506113032 | 31 | 259 | 1.0 | 6.0 | 0.00 | 0.00 | 0.00 | 70 | 1013.3 |
| 20260506112510 | 31 | 259 | 1.0 | 6.0 | 0.00 | 0.00 | 0.00 | 69 | 1013.3 |
| 20260506112015 | 31 | 259 | 2.0 | 6.0 | 0.00 | 0.00 | 0.00 | 69 | 1013.3 |
| 20260506111531 | 31 | 306 | 0.0 | 5.0 | 0.00 | 0.00 | 0.00 | 69 | 1013.3 |
| 20260506111012 | 31 | 263 | 0.0 | 4.0 | 0.00 | 0.00 | 0.00 | 69 | 1013.2 |
| 20260506110512 | 31 | 263 | 2.0 | 4.0 | 0.00 | 0.00 | 0.00 | 68 | 1013.2 |
| 20260506110030 | 31 | 344 | 1.0 | 4.0 | 0.00 | 0.00 | 0.00 | 68 | 1013.1 |
| 20260506105512 | 32 | 344 | 1.0 | 4.0 | 0.00 | 0.00 | 0.00 | 67 | 1013.1 |
| 20260506105014 | 32 | 288 | 1.0 | 6.0 | 0.00 | 0.00 | 0.00 | 66 | 1013.1 |
| 20260506104533 | 32 | 292 | 2.0 | 8.0 | 0.00 | 0.00 | 0.00 | 66 | 1013.2 |
| 20260506104016 | 33 | 355 | 1.0 | 8.0 | 0.00 | 0.00 | 0.00 | 65 | 1013.1 |
| 20260506103514 | 33 | 281 | 3.0 | 8.0 | 0.00 | 0.00 | 0.00 | 65 | 1013.1 |
| 20260506103032 | 33 | 280 | 1.0 | 8.0 | 0.00 | 0.00 | 0.00 | 67 | 1013.1 |
| 20260506102511 | 34 | 277 | 2.0 | 8.0 | 0.00 | 0.00 | 0.00 | 67 | 1013.0 |
| 20260506102013 | 34 | 0 | 1.0 | 7.0 | 0.00 | 0.00 | 0.00 | 68 | 1013.0 |
| 20260506101532 | 34 | 257 | 1.0 | 4.0 | 0.00 | 0.00 | 0.00 | 68 | 1013.0 |
| 20260506101010 | 34 | 262 | 1.0 | 4.0 | 0.00 | 0.00 | 0.00 | 68 | 1013.0 |
| 20260506100515 | 34 | 262 | 1.0 | 4.0 | 0.00 | 0.00 | 0.00 | 67 | 1013.0 |
| 20260506100031 | 34 | 262 | 2.0 | 4.0 | 0.00 | 0.00 | 0.00 | 67 | 1013.0 |
| 20260506095513 | 34 | 265 | 1.0 | 3.0 | 0.00 | 0.00 | 0.00 | 68 | 1013.0 |
| 20260506095009 | 34 | 265 | 1.0 | 7.0 | 0.00 | 0.00 | 0.00 | 68 | 1013.0 |
| 20260506094531 | 34 | 265 | 1.0 | 7.0 | 0.00 | 0.00 | 0.00 | 67 | 1013.1 |
| 20260506094010 | 34 | 256 | 2.0 | 7.0 | 0.00 | 0.00 | 0.00 | 67 | 1013.0 |
| 20260506093513 | 34 | 252 | 2.0 | 4.0 | 0.00 | 0.00 | 0.00 | 67 | 1012.9 |
| 20260506093038 | 34 | 252 | 0.0 | 4.0 | 0.00 | 0.00 | 0.00 | 67 | 1012.9 |
| 20260506092509 | 34 | 321 | 1.0 | 3.0 | 0.00 | 0.00 | 0.00 | 67 | 1012.9 |
| 20260506092016 | 34 | 321 | 0.0 | 3.0 | 0.00 | 0.00 | 0.00 | 67 | 1012.8 |
| 20260506091532 | 34 | 0 | 1.0 | 3.0 | 0.00 | 0.00 | 0.00 | 67 | 1012.8 |
| 20260506091011 | 34 | 0 | 1.0 | 4.0 | 0.00 | 0.00 | 0.00 | 67 | 1012.8 |
| 20260506090513 | 34 | 256 | 1.0 | 7.0 | 0.00 | 0.00 | 0.00 | 67 | 1012.8 |
| 20260506090032 | 34 | 0 | 1.0 | 7.0 | 0.00 | 0.00 | 0.00 | 66 | 1012.7 |
| 20260506085510 | 34 | 256 | 2.0 | 7.0 | 0.00 | 0.00 | 0.00 | 66 | 1012.6 |
| 20260506085010 | 34 | 0 | 0.0 | 3.0 | 0.00 | 0.00 | 0.00 | 66 | 1012.8 |
| 20260506084536 | 34 | 259 | 0.0 | 3.0 | 0.00 | 0.00 | 0.00 | 66 | 1012.7 |
| 20260506084012 | 34 | 259 | 0.0 | 4.0 | 0.00 | 0.00 | 0.00 | 66 | 1012.7 |
| 20260506083514 | 34 | 0 | 1.0 | 4.0 | 0.00 | 0.00 | 0.00 | 66 | 1012.7 |
| 20260506083030 | 34 | 259 | 0.0 | 3.0 | 0.00 | 0.00 | 0.00 | 66 | 1012.7 |
| 20260506082511 | 34 | 259 | 1.0 | 4.0 | 0.00 | 0.00 | 0.00 | 66 | 1012.7 |
| 20260506082013 | 34 | 0 | 1.0 | 4.0 | 0.00 | 0.00 | 0.00 | 66 | 1012.7 |
| 20260506081529 | 34 | 0 | 1.0 | 4.0 | 0.00 | 0.00 | 0.00 | 66 | 1012.7 |
| 20260506081012 | 35 | 259 | 0.0 | 4.0 | 0.00 | 0.00 | 0.00 | 66 | 1012.7 |
| 20260506080509 | 35 | 259 | 1.0 | 4.0 | 0.00 | 0.00 | 0.00 | 66 | 1012.7 |
| 20260506073511 | 35 | 259 | 1.0 | 4.0 | 0.00 | 0.00 | 0.00 | 65 | 1012.8 |
| 20260506073032 | 35 | 300 | 0.0 | 3.0 | 0.00 | 0.00 | 0.00 | 67 | 1012.8 |
| 20260506072512 | 35 | 300 | 0.0 | 3.0 | 0.00 | 0.00 | 0.00 | 66 | 1012.8 |
| 20260506072014 | 35 | 300 | 1.0 | 3.0 | 0.00 | 0.00 | 0.00 | 66 | 1012.8 |
| 20260506071531 | 35 | 300 | 1.0 | 3.0 | 0.00 | 0.00 | 0.00 | 66 | 1012.7 |
| 20260506071010 | 35 | 0 | 0.0 | 4.0 | 0.00 | 0.00 | 0.00 | 68 | 1012.7 |
| 20260506070512 | 35 | 0 | 0.0 | 4.0 | 0.00 | 0.00 | 0.00 | 66 | 1012.7 |
| 20260506062512 | 35 | 298 | 1.0 | 5.0 | 0.00 | 0.00 | 0.00 | 65 | 1012.6 |
| 20260506062015 | 35 | 290 | 0.0 | 5.0 | 0.00 | 0.00 | 0.00 | 66 | 1012.6 |
| 20260506061532 | 35 | 0 | 1.0 | 5.0 | 0.00 | 0.00 | 0.00 | 65 | 1012.6 |
| 20260506061010 | 35 | 0 | 2.0 | 5.0 | 0.00 | 0.00 | 0.00 | 65 | 1012.5 |
| 20260506060513 | 35 | 319 | 0.0 | 5.0 | 0.00 | 0.00 | 0.00 | 67 | 1012.5 |
| 20260506051011 | 34 | 302 | 1.0 | 4.0 | 0.00 | 0.00 | 0.00 | 68 | 1012.1 |
| 20260506050512 | 34 | 0 | 0.0 | 8.0 | 0.00 | 0.00 | 0.00 | 68 | 1012.1 |
| 20260506045011 | 34 | 0 | 0.0 | 1.0 | 0.00 | 0.00 | 0.00 | 69 | 1011.9 |
| 20260506044538 | 34 | 0 | 0.0 | 0.0 | 0.00 | 0.00 | 0.00 | 68 | 1011.9 |
| 20260506044011 | 34 | 0 | 0.0 | 0.0 | 0.00 | 0.00 | 0.00 | 68 | 1011.8 |
| 20260506043515 | 34 | 0 | 0.0 | 0.0 | 0.00 | 0.00 | 0.00 | 68 | 1011.8 |
| 20260506043032 | 34 | 0 | 0.0 | 0.0 | 0.00 | 0.00 | 0.00 | 67 | 1011.9 |
| 20260506042511 | 34 | 0 | 0.0 | 2.0 | 0.00 | 0.00 | 0.00 | 66 | 1011.9 |
| 20260506042014 | 35 | 0 | 0.0 | 2.0 | 0.00 | 0.00 | 0.00 | 67 | 1011.9 |
| 20260506041546 | 35 | 0 | 0.0 | 1.0 | 0.00 | 0.00 | 0.00 | 66 | 1011.9 |
| 20260506041015 | 35 | 0 | 0.0 | 2.0 | 0.00 | 0.00 | 0.00 | 66 | 1011.9 |
| 20260506040510 | 35 | 0 | 0.0 | 3.0 | 0.00 | 0.00 | 0.00 | 65 | 1011.9 |
| 20260506040033 | 36 | 0 | 0.0 | 4.0 | 0.00 | 0.00 | 0.00 | 65 | 1011.9 |
| 20260506035509 | 36 | 0 | 1.0 | 4.0 | 0.00 | 0.00 | 0.00 | 64 | 1011.9 |
| 20260506035010 | 36 | 0 | 0.0 | 2.0 | 0.00 | 0.00 | 0.00 | 64 | 1011.9 |
| 20260506034531 | 36 | 0 | 0.0 | 2.0 | 0.00 | 0.00 | 0.00 | 65 | 1012.0 |
| 20260506034011 | 36 | 0 | 0.0 | 3.0 | 0.00 | 0.00 | 0.00 | 64 | 1011.9 |
| 20260506033512 | 36 | 292 | 0.0 | 3.0 | 0.00 | 0.00 | 0.00 | 63 | 1011.9 |
| 20260506033032 | 37 | 292 | 0.0 | 3.0 | 0.00 | 0.00 | 0.00 | 64 | 1011.9 |
| 20260506032511 | 37 | 292 | 0.0 | 2.0 | 0.00 | 0.00 | 0.00 | 63 | 1011.9 |
| 20260506032015 | 37 | 0 | 0.0 | 3.0 | 0.00 | 0.00 | 0.00 | 63 | 1011.9 |
| 20260506031533 | 37 | 0 | 0.0 | 5.0 | 0.00 | 0.00 | 0.00 | 62 | 1012.0 |
| 20260506031012 | 37 | 317 | 1.0 | 8.0 | 0.00 | 0.00 | 0.00 | 62 | 1011.9 |
| 20260506030515 | 38 | 0 | 1.0 | 8.0 | 0.00 | 0.00 | 0.00 | 61 | 1011.9 |
| 20260506030031 | 38 | 325 | 1.0 | 3.0 | 0.00 | 0.00 | 0.00 | 62 | 1011.8 |
| 20260506025511 | 38 | 336 | 1.0 | 3.0 | 0.00 | 0.00 | 0.00 | 61 | 1011.7 |
| 20260506025011 | 38 | 355 | 0.0 | 4.0 | 0.00 | 0.00 | 0.00 | 61 | 1011.7 |
| 20260506024536 | 38 | 0 | 0.0 | 4.0 | 0.00 | 0.00 | 0.00 | 61 | 1011.7 |
| 20260506024014 | 38 | 265 | 1.0 | 4.0 | 0.00 | 0.00 | 0.00 | 61 | 1011.6 |
| 20260506023513 | 38 | 0 | 0.0 | 6.0 | 0.00 | 0.00 | 0.00 | 61 | 1011.6 |
| 20260506023031 | 38 | 273 | 2.0 | 6.0 | 0.00 | 0.00 | 0.00 | 60 | 1011.5 |
| 20260506022510 | 38 | 329 | 1.0 | 7.0 | 0.00 | 0.00 | 0.00 | 61 | 1011.5 |
| 20260506022012 | 38 | 277 | 1.0 | 7.0 | 0.00 | 0.00 | 0.00 | 60 | 1011.5 |
| 20260506021530 | 38 | 0 | 1.0 | 4.0 | 0.00 | 0.00 | 0.00 | 60 | 1011.4 |
| 20260506021016 | 38 | 286 | 1.0 | 9.0 | 0.00 | 0.00 | 0.00 | 60 | 1011.3 |
| 20260506020515 | 38 | 286 | 1.0 | 9.0 | 0.00 | 0.00 | 0.00 | 62 | 1011.2 |
| 20260506020030 | 39 | 279 | 2.0 | 9.0 | 0.00 | 0.00 | 0.00 | 61 | 1011.2 |
| 20260506015510 | 39 | 329 | 0.0 | 3.0 | 0.00 | 0.00 | 0.00 | 62 | 1011.2 |
| 20260506015015 | 39 | 329 | 0.0 | 3.0 | 0.00 | 0.00 | 0.00 | 61 | 1011.1 |
| 20260506014532 | 39 | 0 | 0.0 | 3.0 | 0.00 | 0.00 | 0.00 | 61 | 1011.1 |
| 20260506014010 | 39 | 329 | 1.0 | 6.0 | 0.00 | 0.00 | 0.00 | 59 | 1011.0 |
| 20260506013511 | 39 | 18 | 2.0 | 6.0 | 0.00 | 0.00 | 0.00 | 59 | 1010.9 |
| 20260506013032 | 39 | 0 | 2.0 | 6.0 | 0.00 | 0.00 | 0.00 | 59 | 1011.0 |
| 20260506012510 | 39 | 0 | 1.0 | 5.0 | 0.00 | 0.00 | 0.00 | 59 | 1010.9 |
| 20260506012015 | 40 | 325 | 0.0 | 5.0 | 0.00 | 0.00 | 0.00 | 59 | 1010.9 |
| 20260506011558 | 40 | 263 | 1.0 | 5.0 | 0.00 | 0.00 | 0.00 | 58 | 1010.8 |
| 20260506011015 | 40 | 310 | 2.0 | 6.0 | 0.00 | 0.00 | 0.00 | 59 | 1010.7 |
| 20260506010510 | 40 | 319 | 2.0 | 6.0 | 0.00 | 0.00 | 0.00 | 58 | 1010.6 |
| 20260506010031 | 40 | 334 | 1.0 | 8.0 | 0.00 | 0.00 | 0.00 | 57 | 1010.6 |
| 20260506005515 | 40 | 321 | 0.0 | 8.0 | 0.00 | 0.00 | 0.00 | 60 | 1010.6 |
| 20260506005010 | 40 | 321 | 2.0 | 8.0 | 0.00 | 0.00 | 0.00 | 57 | 1010.4 |
| 20260506004541 | 40 | 0 | 1.0 | 6.0 | 0.00 | 0.00 | 0.00 | 57 | 1010.4 |
| 20260506004012 | 40 | 267 | 2.0 | 6.0 | 0.00 | 0.00 | 0.00 | 57 | 1010.4 |
| 20260506003528 | 41 | 351 | 2.0 | 8.0 | 0.00 | 0.00 | 0.00 | 57 | 1010.3 |
| 20260506003031 | 41 | 326 | 2.0 | 8.0 | 0.00 | 0.00 | 0.00 | 56 | 1010.3 |
| 20260506002514 | 41 | 289 | 1.0 | 4.0 | 0.00 | 0.00 | 0.00 | 59 | 1010.3 |
| 20260506002017 | 41 | 0 | 0.0 | 4.0 | 0.00 | 0.00 | 0.00 | 57 | 1010.2 |
| 20260506001532 | 41 | 287 | 1.0 | 10.0 | 0.00 | 0.00 | 0.00 | 57 | 1010.3 |
| 20260506001011 | 41 | 317 | 2.0 | 10.0 | 0.00 | 0.00 | 0.00 | 55 | 1010.2 |
| 20260506000516 | 41 | 290 | 2.0 | 10.0 | 0.00 | 0.00 | 0.00 | 56 | 1010.1 |
| 20260506000032 | 42 | 334 | 4.0 | 10.0 | 0.00 | 0.00 | 0.00 | 55 | 1010.1 |
| 20260505235511 | 42 | 328 | 2.0 | 8.0 | 0.00 | 0.00 | 0.00 | 55 | 1010.1 |
| 20260505235011 | 42 | 254 | 2.0 | 8.0 | 0.00 | 0.00 | 0.00 | 54 | 1010.0 |
| 20260505234530 | 42 | 337 | 2.0 | 9.0 | 0.00 | 0.00 | 0.00 | 55 | 1010.0 |
| 20260505234014 | 42 | 0 | 2.0 | 9.0 | 0.00 | 0.00 | 0.00 | 57 | 1010.1 |
| 20260505233510 | 42 | 323 | 1.0 | 4.0 | 0.00 | 0.00 | 0.00 | 56 | 1010.0 |
| 20260505233034 | 42 | 295 | 2.0 | 7.0 | 0.00 | 0.00 | 0.00 | 55 | 1009.9 |
| 20260505232512 | 42 | 311 | 3.0 | 8.0 | 0.00 | 0.00 | 0.00 | 55 | 1009.9 |
| 20260505232013 | 42 | 0 | 2.0 | 8.0 | 0.00 | 0.00 | 0.00 | 55 | 1009.9 |
| 20260505231538 | 42 | 280 | 2.0 | 7.0 | 0.00 | 0.00 | 0.00 | 55 | 1009.9 |
| 20260505231011 | 42 | 285 | 3.0 | 7.0 | 0.00 | 0.00 | 0.00 | 54 | 1010.0 |
| 20260505230511 | 42 | 331 | 2.0 | 9.0 | 0.00 | 0.00 | 0.00 | 54 | 1010.0 |
| 20260505230031 | 42 | 275 | 2.0 | 13.0 | 0.00 | 0.00 | 0.00 | 55 | 1009.9 |
| 20260505225513 | 42 | 280 | 4.0 | 13.0 | 0.00 | 0.00 | 0.00 | 54 | 1009.9 |
| 20260505225013 | 42 | 282 | 3.0 | 12.0 | 0.00 | 0.00 | 0.00 | 53 | 1009.7 |
| 20260505224529 | 42 | 266 | 0.0 | 8.0 | 0.00 | 0.00 | 0.00 | 56 | 1009.8 |
| 20260505224013 | 43 | 289 | 2.0 | 8.0 | 0.00 | 0.00 | 0.00 | 53 | 1009.8 |
| 20260505223517 | 43 | 271 | 2.0 | 7.0 | 0.00 | 0.00 | 0.00 | 54 | 1009.8 |
| 20260505223033 | 43 | 0 | 1.0 | 8.0 | 0.00 | 0.00 | 0.00 | 52 | 1009.7 |
| 20260505222510 | 43 | 265 | 2.0 | 9.0 | 0.00 | 0.00 | 0.00 | 52 | 1009.8 |
| 20260505222018 | 43 | 270 | 4.0 | 9.0 | 0.00 | 0.00 | 0.00 | 51 | 1009.7 |
| 20260505221534 | 43 | 211 | 2.0 | 11.0 | 0.00 | 0.00 | 0.00 | 51 | 1009.5 |
| 20260505221010 | 44 | 355 | 1.0 | 11.0 | 0.00 | 0.00 | 0.00 | 53 | 1009.6 |
| 20260505220512 | 44 | 295 | 4.0 | 11.0 | 0.00 | 0.00 | 0.00 | 52 | 1009.6 |
| 20260505220046 | 44 | 288 | 2.0 | 9.0 | 0.00 | 0.00 | 0.00 | 52 | 1009.6 |
| 20260505215514 | 44 | 309 | 2.0 | 9.0 | 0.00 | 0.00 | 0.00 | 52 | 1009.6 |
| 20260505215011 | 44 | 265 | 4.0 | 9.0 | 0.00 | 0.00 | 0.00 | 50 | 1009.5 |
| 20260505214533 | 44 | 225 | 2.0 | 9.0 | 0.00 | 0.00 | 0.00 | 52 | 1009.6 |
| 20260505214013 | 44 | 305 | 2.0 | 9.0 | 0.00 | 0.00 | 0.00 | 52 | 1009.5 |
| 20260505213511 | 44 | 308 | 2.0 | 10.0 | 0.00 | 0.00 | 0.00 | 51 | 1009.5 |
| 20260505213032 | 43 | 264 | 3.0 | 12.0 | 0.00 | 0.00 | 0.00 | 51 | 1009.5 |
| 20260505212509 | 44 | 267 | 5.0 | 12.0 | 0.00 | 0.00 | 0.00 | 50 | 1009.6 |
| 20260505212017 | 44 | 246 | 6.0 | 11.0 | 0.00 | 0.00 | 0.00 | 49 | 1009.5 |
| 20260505211537 | 44 | 260 | 4.0 | 10.0 | 0.00 | 0.00 | 0.00 | 51 | 1009.5 |
| 20260505211008 | 43 | 277 | 5.0 | 9.0 | 0.00 | 0.00 | 0.00 | 53 | 1009.6 |
| 20260505210511 | 43 | 261 | 5.0 | 11.0 | 0.00 | 0.00 | 0.00 | 51 | 1009.4 |
| 20260505210039 | 43 | 273 | 3.0 | 11.0 | 0.00 | 0.00 | 0.00 | 53 | 1009.5 |
| 20260505205516 | 43 | 265 | 3.0 | 12.0 | 0.00 | 0.00 | 0.00 | 53 | 1009.6 |
| 20260505205014 | 43 | 265 | 3.0 | 12.0 | 0.00 | 0.00 | 0.00 | 52 | 1009.5 |
| 20260505204531 | 43 | 268 | 6.0 | 12.0 | 0.00 | 0.00 | 0.00 | 51 | 1009.6 |
| 20260505204011 | 43 | 263 | 4.0 | 12.0 | 0.00 | 0.00 | 0.00 | 51 | 1009.5 |
| 20260505203511 | 43 | 300 | 4.0 | 10.0 | 0.00 | 0.00 | 0.00 | 54 | 1009.5 |
| 20260505203033 | 43 | 296 | 4.0 | 9.0 | 0.00 | 0.00 | 0.00 | 51 | 1009.4 |
| 20260505202508 | 43 | 272 | 4.0 | 10.0 | 0.00 | 0.00 | 0.00 | 52 | 1009.5 |
| 20260505202014 | 42 | 286 | 4.0 | 10.0 | 0.00 | 0.00 | 0.00 | 55 | 1009.6 |
| 20260505201530 | 42 | 264 | 3.0 | 11.0 | 0.00 | 0.00 | 0.00 | 54 | 1009.6 |
| 20260505201009 | 42 | 278 | 5.0 | 11.0 | 0.00 | 0.00 | 0.00 | 53 | 1009.6 |
| 20260505200513 | 42 | 276 | 2.0 | 9.0 | 0.00 | 0.00 | 0.00 | 55 | 1009.5 |
| 20260505200030 | 42 | 302 | 3.0 | 13.0 | 0.00 | 0.00 | 0.00 | 54 | 1009.6 |
| 20260505195512 | 42 | 273 | 5.0 | 13.0 | 0.00 | 0.00 | 0.00 | 53 | 1009.6 |
| 20260505195012 | 42 | 261 | 7.0 | 13.0 | 0.00 | 0.00 | 0.00 | 52 | 1009.6 |
| 20260505194528 | 42 | 257 | 5.0 | 13.0 | 0.00 | 0.00 | 0.00 | 51 | 1009.4 |
| 20260505194018 | 42 | 271 | 4.0 | 11.0 | 0.00 | 0.00 | 0.00 | 55 | 1009.4 |
| 20260505193511 | 41 | 239 | 3.0 | 14.0 | 0.00 | 0.00 | 0.00 | 55 | 1009.5 |
| 20260505193035 | 41 | 283 | 5.0 | 14.0 | 0.00 | 0.00 | 0.00 | 53 | 1009.6 |
| 20260505192509 | 42 | 254 | 6.0 | 13.0 | 0.00 | 0.00 | 0.00 | 53 | 1009.6 |
| 20260505192015 | 42 | 272 | 3.0 | 9.0 | 0.00 | 0.00 | 0.00 | 54 | 1009.5 |
| 20260505191529 | 42 | 238 | 4.0 | 9.0 | 0.00 | 0.00 | 0.00 | 52 | 1009.5 |
| 20260505191009 | 42 | 329 | 2.0 | 12.0 | 0.00 | 0.00 | 0.00 | 54 | 1009.4 |
| 20260505190517 | 42 | 270 | 3.0 | 12.0 | 0.00 | 0.00 | 0.00 | 54 | 1009.5 |
| 20260505190029 | 42 | 309 | 3.0 | 10.0 | 0.00 | 0.00 | 0.00 | 53 | 1009.4 |
| 20260505185509 | 41 | 276 | 4.0 | 10.0 | 0.00 | 0.00 | 0.00 | 56 | 1009.4 |
| 20260505185012 | 41 | 263 | 4.0 | 10.0 | 0.00 | 0.00 | 0.00 | 54 | 1009.4 |
| 20260505184531 | 41 | 263 | 3.0 | 9.0 | 0.00 | 0.00 | 0.00 | 56 | 1009.4 |
| 20260505184009 | 41 | 304 | 2.0 | 10.0 | 0.00 | 0.00 | 0.00 | 56 | 1009.5 |
| 20260505183512 | 40 | 311 | 3.0 | 10.0 | 0.00 | 0.00 | 0.00 | 56 | 1009.4 |
| 20260505183043 | 40 | 321 | 5.0 | 11.0 | 0.00 | 0.00 | 0.00 | 55 | 1009.5 |
| 20260505182509 | 40 | 250 | 3.0 | 11.0 | 0.00 | 0.00 | 0.00 | 55 | 1009.5 |
| 20260505182015 | 40 | 253 | 4.0 | 11.0 | 0.00 | 0.00 | 0.00 | 57 | 1009.4 |
| 20260505181550 | 40 | 284 | 4.0 | 11.0 | 0.00 | 0.00 | 0.00 | 54 | 1009.5 |
| 20260505181012 | 40 | 261 | 2.0 | 9.0 | 0.00 | 0.00 | 0.00 | 55 | 1009.4 |
| 20260505180514 | 40 | 271 | 3.0 | 11.0 | 0.00 | 0.00 | 0.00 | 56 | 1009.4 |
| 20260505180029 | 39 | 265 | 4.0 | 11.0 | 0.00 | 0.00 | 0.00 | 57 | 1009.5 |
| 20260505175509 | 39 | 260 | 4.0 | 11.0 | 0.00 | 0.00 | 0.00 | 57 | 1009.5 |
| 20260505175010 | 38 | 262 | 4.0 | 13.0 | 0.00 | 0.00 | 0.00 | 58 | 1009.5 |
| 20260505174529 | 38 | 255 | 7.0 | 13.0 | 0.00 | 0.00 | 0.00 | 56 | 1009.5 |
| 20260505174009 | 38 | 271 | 5.0 | 10.0 | 0.00 | 0.00 | 0.00 | 57 | 1009.5 |
| 20260505173513 | 38 | 264 | 3.0 | 9.0 | 0.00 | 0.00 | 0.00 | 59 | 1009.5 |
| 20260505173028 | 38 | 265 | 2.0 | 9.0 | 0.00 | 0.00 | 0.00 | 59 | 1009.4 |
| 20260505172516 | 38 | 264 | 4.0 | 11.0 | 0.00 | 0.00 | 0.00 | 58 | 1009.4 |
| 20260505172014 | 37 | 275 | 3.0 | 11.0 | 0.00 | 0.00 | 0.00 | 60 | 1009.4 |
| 20260505171530 | 37 | 275 | 5.0 | 11.0 | 0.00 | 0.00 | 0.00 | 60 | 1009.4 |
| 20260505171011 | 37 | 311 | 2.0 | 11.0 | 0.00 | 0.00 | 0.00 | 62 | 1009.5 |
| 20260505170514 | 36 | 274 | 4.0 | 11.0 | 0.00 | 0.00 | 0.00 | 62 | 1009.4 |
| 20260505170030 | 36 | 254 | 4.0 | 11.0 | 0.00 | 0.00 | 0.00 | 61 | 1009.5 |
| 20260505165509 | 37 | 277 | 4.0 | 11.0 | 0.00 | 0.00 | 0.00 | 63 | 1009.4 |